Tracking 18793 objects as of 24-September-2017
HD Live streaming from Space Station
objects crossing your sky now

CICERO 6

Track CICERO 6 now!
10-day predictions


NORAD ID: 42793
Int'l Code: 2017-036AE
Perigee: 502.9 km
Apogee: 515.6 km
Inclination: 97.4 °
Period: 94.7 minutes
Semi major axis: 6880 km
RCS: Unknown
Launch date: June 23, 2017
Source: United States (US)
Launch site: SIRHARIKOTA (SRI)
aabbcc
Your satellite tracking list
Your tracking list is empty





NASA's NSSDC Master Catalog

Two Line Element Set (TLE):
1 42793U 17036AE  17266.82954471  .00001216  00000-0  57569-4 0  9990
2 42793  97.4398 325.5343 0009186 295.6282  64.4004 15.21237589 14095
Source of the keplerian elements: AFSPC